{"data":{"norad_id":58083,"intl_designator":"2023-160J","name":"STARLINK-30551","alt_names":[],"object_type":"PAYLOAD","status":"ACTIVE","operator":null,"country":"US","launch_date":"2023-10-18","launch_site_code":"AFETR","launch_vehicle":null,"mission":null,"orbit_class":"UNKNOWN","rcs_meters":null,"size_class":null,"mass_kg":null,"dimensions":null,"purposes":["comms"],"wikipedia_slug":null,"has_3d_model":false,"image_url":null,"decayed_at":null,"tle_current":{"epoch":"2026-09-20T21:59:30.300288Z","epoch_age_seconds":104509,"freshness":"FRESH","line1":"1 58083U 23160J   26263.91632292 -.00013783  00000+0 -49121-3 0  9992","line2":"2 58083  43.0055  58.7148 0003246 263.9723  96.0759 15.27642541162768","mean_motion":15.27642541,"eccentricity":0.0003246,"inclination_deg":43.0055,"raan_deg":58.7148,"arg_perigee_deg":263.9723,"mean_anomaly_deg":96.0759,"bstar":-0.00049121,"rev_number":16276,"period_min":94.262889475268,"perigee_km":480.63475195472,"apogee_km":485.08891239657,"semimajor_km":6860.9988321756,"source":"CELESTRAK","updated_at":"2026-09-21T09:00:33.782911Z"}}}